[Iaude] MPEC H39: 2023 HO36 [a=1.08,e=0.26,i=2.7,H=30.5]

mpec at cfa.harvard.edu mpec at cfa.harvard.edu
Fri Apr 19 07:59:26 EDT 2024


M.P.E.C. 2024-H39                                Issued 2024 April 19, 11:58 UT

     The Minor Planet Electronic Circulars contain information on unusual
         minor planets, routine data on comets and natural satellites,
         and occasional editorial announcements.  They are published
    on behalf of Division F of the International Astronomical Union by the
          Minor Planet Center, Smithsonian Astrophysical Observatory,
                          Cambridge, MA 02138, U.S.A.
			  
             Prepared using the Tamkin Foundation Computer Network

                              MPC at CFA.HARVARD.EDU
            URL https://www.minorplanetcenter.net/    ISSN 1523-6714

                                   2023 HO36                                    


Observations:
     K23H36O*1C2023 04 17.41809114 09 32.893+05 16 55.42         20.10GVEH039G96
     K23H36O 1C2023 04 17.42374614 09 35.251+05 19 32.99         20.15GVEH039G96
     K23H36O 1C2023 04 17.42939814 09 37.742+05 22 10.09         20.46GVEH039G96
     K23H36O 1C2023 04 17.43504614 09 40.255+05 24 46.22         21.63GVEH039G96
     K23H36O 1C2023 04 17.46402514 09 54.752+05 38 40.88         20.72GVEH039G96
     K23H36O 1C2023 04 17.46542014 09 55.552+05 39 22.14         20.06GVEH039G96
     K23H36O 1C2023 04 17.46682114 09 56.300+05 40 02.50         19.93GVEH039G96
     K23H36O KC2023 04 17.96633314 24 14.746+12 15 03.17         19.2 GVEH039J95
     K23H36O KC2023 04 17.97178714 24 25.730+12 22 13.91         19.1 GVEH039J95
     K23H36O KC2023 04 17.97308914 24 28.380+12 23 56.40         19.2 GVEH039J95
     K23H36O KC2023 04 17.97434714 24 30.898+12 25 36.91         19.3 GVEH039J95
     K23H36O KC2023 04 17.97565514 24 33.590+12 27 21.64         19.1 GVEH039J95
     K23H36O !C2023 04 18.01757 14 26 45.36 +13 40 15.6          19.0 GVEH039J04
     K23H36O !C2023 04 18.01894 14 26 48.23 +13 42 20.0          18.3 GVEH039J04

Observer details:
G96 Mt. Lemmon Survey.  Observer J. K. Hogan.  Measurers E. J. Christensen, D.
    Fay, J. B. Fazekas, D. C. Fuls, A. R. Gibbs, A. D. Grauer, H. Groeller, J.
    K. Hogan, R. A. Kowalski, S. M. Larson, G. J. Leonard, D. Rankin, R. L.
    Seaman, A. Serrano, F. C. Shelly, K. W. Wierzchos.  1.5-m reflector + 10K
    CCD.
J04 ESA Optical Ground Station, Tenerife.  Observers P. Ruiz, M. Micheli, F.
    Ocana, L. Conversi.  Measurers R. Kresken, M. Micheli, F. Ocana, A.
    Knofel, M. Busch, E. Schwab.  1.0-m f/4.4 reflector + CCD.
J95 Great Shefford.  Observer P. Birtwhistle.  0.41-m f/6.3 Schmidt-Cassegrain
    + CCD.

Orbital elements:
2023 HO36                                                Earth MOID = 0.0013 AU
Epoch 2024 Mar. 31.0 TT = JDT 2460400.5                 Veres                   
M 245.23528              (2000.0)            P               Q                  
n   0.87884408     Peri.  268.27359     +0.46781210     +0.88353131             
a   1.0794309      Node    29.65313     -0.79138439     +0.43027569             
e   0.2639047      Incl.    2.65255     -0.39352584     +0.18502769             
P   1.12           H   30.56          G   0.15           U   7                  
Residuals in seconds of arc
230417 G96  0.0   0.8-    230417 G96  0.5+  0.4+    230417 J95  0.2-  0.2-
230417 G96  0.5-  0.5+    230417 G96  0.2+  0.4-    230417 J95  0.3+  0.1-
230417 G96  0.2-  0.2+    230417 J95  0.2-  0.1-    230418 J04  0.0   0.1-
230417 G96 (0.7-  2.1-)   230417 J95  0.1+  0.5+    230418 J04  0.0   0.1+
230417 G96  0.1-  0.1+    230417 J95  0.3+  0.4-

Ephemeris:
2023 HO36                a,e,i = 1.08, 0.26, 3                   q = 0.7946
Date    TT    R. A. (2000) Decl.     Delta      r    Elong.  Phase     V
2024 03 20    07 03 36.3 +27 26 57   0.5941  1.2812   104.5    48.8    31.8
...
2024 04 04    07 22 36.9 +25 46 39   0.6605  1.2380    94.2    53.7    32.1
...
2024 04 12    07 35 52.8 +24 46 29   0.6903  1.2115    89.4    55.8    32.2
...
2024 04 18    07 46 54.6 +23 57 07   0.7094  1.1902    86.2    57.3    32.3
2024 04 19    07 48 49.5 +23 48 29   0.7123  1.1865    85.7    57.6    32.3
2024 04 20    07 50 45.6 +23 39 45   0.7151  1.1828    85.1    57.8    32.3
...
2024 04 26    08 02 45.1 +22 44 41   0.7299  1.1600    82.2    59.2    32.3
...
2024 05 04    08 19 37.8 +21 23 44   0.7442  1.1279    78.5    61.2    32.4
...
2024 05 19    08 53 24.7 +18 25 51   0.7527  1.0635    72.5    65.1    32.4

M. P. C. Staff               (C) Copyright 2024 MPC           M.P.E.C. 2024-H39





More information about the Iaude mailing list